Location: Allentsteig
(48.6833°N, 15.3167°E)
Time: 22:20:05
(UTC+00:00)

USA 238 DEB - Pass Details

Date: 17 January 2021
Orbit: 995 x 1217 km, 63.4° (Epoch: 07 March)

Event Time Altitude Azimuth Distance (km) Brightness Sun altitude
Rises 17:09:43 0° 304° (NW) 4,010 7.4 -15.4°
Reaches altitude 10° 17:15:26 10° 269° (W) 3,099 7.4 -16.4°
Maximum altitude 17:16:45 11° 258° (WSW) 3,068 7.4 -16.6°
Drops below altitude 10° 17:18:04 10° 248° (WSW) 3,117 7.4 -16.8°
Sets 17:23:57 0° 213° (SSW) 4,109 7.4 -17.7°
